Previsão horária em Abay

Hoje, 17 Abril, Sábado

Tempo Temperatura Precipitação Vento Pressão Humidade
00:00 +3°C° 0 mm 1 m/s 669 mmHg 73%
01:00 +3°C° 0 mm 1 m/s 668 mmHg 72%
02:00 +3°C° 0 mm 1 m/s 668 mmHg 72%
03:00 +3°C° 0 mm 1 m/s 668 mmHg 72%
04:00 +3°C° 0 mm 1 m/s 668 mmHg 72%
05:00 +3°C° 0 mm 1 m/s 668 mmHg 72%
06:00 +3°C° 0 mm 1 m/s 668 mmHg 72%
07:00 +5°C° 0 mm 1 m/s 668 mmHg 65%
08:00 +7°C° 0 mm 1 m/s 668 mmHg 58%
09:00 +9°C° 0 mm 1 m/s 668 mmHg 52%
10:00 +9°C° 0 mm 2 m/s 667 mmHg 49%
11:00 +10°C° 0 mm 3 m/s 667 mmHg 47%
12:00 +11°C° 0 mm 4 m/s 667 mmHg 44%
13:00 +11°C° 0 mm 4 m/s 667 mmHg 46%
14:00 +11°C° 0 mm 4 m/s 667 mmHg 49%
15:00 +10°C° 0 mm 5 m/s 667 mmHg 51%
16:00 +10°C° 0.2 mm 4 m/s 667 mmHg 57%
17:00 +9°C° 0.2 mm 3 m/s 668 mmHg 62%
18:00 +8°C° 0.2 mm 3 m/s 668 mmHg 68%
19:00 +6°C° 0.1 mm 2 m/s 668 mmHg 75%
20:00 +5°C° 0.1 mm 2 m/s 669 mmHg 81%
21:00 +4°C° 0.1 mm 1 m/s 669 mmHg 87%
22:00 +4°C° 0 mm 1 m/s 669 mmHg 88%
23:00 +3°C° 0 mm 1 m/s 669 mmHg 89%

Amanhã, 18 Abril, Domingo

Tempo Temperatura Precipitação Vento Pressão Humidade
00:00 +3°C° 0 mm 1 m/s 669 mmHg 90%
01:00 +3°C° 0 mm 1 m/s 669 mmHg 91%
02:00 +3°C° 0 mm 1 m/s 669 mmHg 91%
03:00 +3°C° 0 mm 1 m/s 669 mmHg 91%
04:00 +3°C° 0 mm 1 m/s 669 mmHg 91%
05:00 +3°C° 0 mm 1 m/s 669 mmHg 90%
06:00 +3°C° 0 mm 1 m/s 669 mmHg 90%
07:00 +3°C° 0 mm 2 m/s 669 mmHg 80%
08:00 +5°C° 0 mm 2 m/s 669 mmHg 70%
09:00 +5°C° 0 mm 3 m/s 669 mmHg 61%
10:00 +7°C° 0 mm 3 m/s 668 mmHg 54%
11:00 +7°C° 0 mm 4 m/s 668 mmHg 47%
12:00 +8°C° 0 mm 5 m/s 668 mmHg 40%
13:00 +8°C° 0 mm 5 m/s 668 mmHg 40%
14:00 +8°C° 0 mm 5 m/s 668 mmHg 39%
15:00 +8°C° 0 mm 5 m/s 668 mmHg 39%
16:00 +7°C° 0 mm 5 m/s 668 mmHg 43%
17:00 +7°C° 0 mm 4 m/s 667 mmHg 48%
18:00 +6°C° 0 mm 4 m/s 667 mmHg 52%
19:00 +5°C° 0 mm 3 m/s 667 mmHg 60%
20:00 +4°C° 0 mm 3 m/s 667 mmHg 67%
21:00 +3°C° 0 mm 2 m/s 667 mmHg 75%
22:00 +2°C° 0 mm 3 m/s 667 mmHg 75%
23:00 +2°C° 0 mm 3 m/s 667 mmHg 76%

Depois de amanhã, 19 Abril, Segunda-feira

Tempo Temperatura Precipitação Vento Pressão Humidade
00:00 +2°C° 0 mm 3 m/s 666 mmHg 76%
01:00 +2°C° 0 mm 3 m/s 666 mmHg 76%
02:00 +2°C° 0 mm 3 m/s 665 mmHg 77%
03:00 +2°C° 0 mm 3 m/s 665 mmHg 78%
04:00 +2°C° 0 mm 3 m/s 665 mmHg 81%
05:00 +2°C° 0 mm 3 m/s 664 mmHg 85%
06:00 +2°C° 0 mm 3 m/s 664 mmHg 88%
07:00 +3°C° 0.2 mm 4 m/s 664 mmHg 86%
08:00 +4°C° 0.2 mm 4 m/s 664 mmHg 84%
09:00 +5°C° 0.2 mm 4 m/s 665 mmHg 82%
10:00 +5°C° 0.5 mm 4 m/s 665 mmHg 78%
11:00 +5°C° 0.5 mm 5 m/s 665 mmHg 74%
12:00 +5°C° 0.5 mm 5 m/s 665 mmHg 70%
13:00 +5°C° 0.2 mm 5 m/s 665 mmHg 68%
14:00 +5°C° 0.2 mm 5 m/s 666 mmHg 67%
15:00 +5°C° 0.2 mm 5 m/s 666 mmHg 66%
16:00 +4°C° 0.3 mm 4 m/s 666 mmHg 68%
17:00 +3°C° 0.3 mm 3 m/s 666 mmHg 71%
18:00 +2°C° 0.3 mm 3 m/s 666 mmHg 74%
19:00 +2°C° 0.2 mm 2 m/s 666 mmHg 79%
20:00 +1°C° 0.2 mm 2 m/s 667 mmHg 84%
21:00 -1°C° 0.2 mm 2 m/s 667 mmHg 88%
22:00 -2°C° 0.2 mm 2 m/s 667 mmHg 88%
23:00 -1°C° 0.2 mm 1 m/s 667 mmHg 88%

20 Abril, Terça-feira

Tempo Temperatura Precipitação Vento Pressão Humidade
00:00 -1°C° 0.2 mm 1 m/s 667 mmHg 88%
01:00 -2°C° 0.1 mm 1 m/s 667 mmHg 88%
02:00 -2°C° 0.1 mm 1 m/s 667 mmHg 87%
03:00 -2°C° 0.1 mm 1 m/s 667 mmHg 87%
04:00 -3°C° 0.1 mm 1 m/s 667 mmHg 85%
05:00 -3°C° 0.1 mm 1 m/s 667 mmHg 84%
06:00 -3°C° 0.1 mm 1 m/s 667 mmHg 83%
07:00 -2°C° 0.1 mm 1 m/s 667 mmHg 80%
08:00 -2°C° 0.1 mm 1 m/s 667 mmHg 77%
09:00 -1°C° 0.1 mm 1 m/s 667 mmHg 73%
10:00 -1°C° 0.2 mm 1 m/s 667 mmHg 73%
11:00 0°C° 0.2 mm 1 m/s 666 mmHg 72%
12:00 0°C° 0.2 mm 1 m/s 666 mmHg 71%
13:00 0°C° 0.3 mm 1 m/s 666 mmHg 71%
14:00 0°C° 0.3 mm 1 m/s 665 mmHg 72%
15:00 0°C° 0.3 mm 1 m/s 665 mmHg 72%
16:00 -2°C° 0.3 mm 2 m/s 665 mmHg 75%
17:00 -3°C° 0.3 mm 2 m/s 665 mmHg 78%
18:00 -3°C° 0.3 mm 2 m/s 665 mmHg 80%
19:00 -5°C° 0.2 mm 3 m/s 665 mmHg 81%
20:00 -6°C° 0.2 mm 3 m/s 666 mmHg 81%
21:00 -7°C° 0.2 mm 3 m/s 666 mmHg 82%
22:00 -8°C° 0.1 mm 3 m/s 667 mmHg 81%
23:00 -9°C° 0.1 mm 3 m/s 667 mmHg 80%

21 Abril, Quarta-feira

Tempo Temperatura Precipitação Vento Pressão Humidade
00:00 -9°C° 0.1 mm 2 m/s 667 mmHg 78%
01:00 -9°C° 0 mm 2 m/s 668 mmHg 79%
02:00 -10°C° 0 mm 2 m/s 668 mmHg 79%
03:00 -10°C° 0 mm 2 m/s 668 mmHg 79%
04:00 -10°C° 0 mm 2 m/s 669 mmHg 79%
05:00 -10°C° 0 mm 1 m/s 669 mmHg 79%
06:00 -10°C° 0 mm 1 m/s 669 mmHg 79%
07:00 -8°C° 0 mm 1 m/s 670 mmHg 69%
08:00 -7°C° 0 mm 0 m/s 670 mmHg 60%
09:00 -5°C° 0 mm 0 m/s 670 mmHg 50%
10:00 -4°C° 0 mm 0 m/s 670 mmHg 45%
11:00 -2°C° 0 mm 0 m/s 669 mmHg 41%
12:00 0°C° 0 mm 1 m/s 669 mmHg 36%
13:00 +1°C° 0 mm 1 m/s 669 mmHg 37%
14:00 +1°C° 0 mm 1 m/s 669 mmHg 39%
15:00 +1°C° 0 mm 2 m/s 668 mmHg 40%
16:00 -1°C° 0.1 mm 2 m/s 668 mmHg 48%
17:00 -2°C° 0.1 mm 2 m/s 669 mmHg 56%
18:00 -2°C° 0.1 mm 3 m/s 669 mmHg 63%
19:00 -3°C° 0.1 mm 2 m/s 669 mmHg 70%
20:00 -3°C° 0.1 mm 2 m/s 669 mmHg 77%
21:00 -4°C° 0.1 mm 2 m/s 669 mmHg 84%
22:00 -4°C° 0 mm 2 m/s 669 mmHg 83%
23:00 -5°C° 0 mm 2 m/s 669 mmHg 82%

22 Abril, Quinta-feira

Tempo Temperatura Precipitação Vento Pressão Humidade
00:00 -5°C° 0 mm 2 m/s 669 mmHg 82%
01:00 -5°C° 0.1 mm 2 m/s 669 mmHg 83%
02:00 -6°C° 0.1 mm 2 m/s 669 mmHg 84%
03:00 -6°C° 0.1 mm 2 m/s 669 mmHg 85%
04:00 -6°C° 0.1 mm 2 m/s 669 mmHg 85%
05:00 -4°C° 0.1 mm 1 m/s 669 mmHg 85%
06:00 -4°C° 0.1 mm 1 m/s 670 mmHg 85%
07:00 -3°C° 0.1 mm 1 m/s 670 mmHg 81%
08:00 -2°C° 0.1 mm 1 m/s 670 mmHg 76%
09:00 -1°C° 0.1 mm 1 m/s 670 mmHg 72%
10:00 -1°C° 0.5 mm 1 m/s 671 mmHg 71%
11:00 0°C° 0.5 mm 1 m/s 671 mmHg 70%
12:00 -2°C° 0.5 mm 2 m/s 671 mmHg 70%
13:00 -2°C° 0.7 mm 2 m/s 671 mmHg 72%
14:00 -2°C° 0.7 mm 3 m/s 672 mmHg 74%
15:00 -4°C° 0.7 mm 3 m/s 672 mmHg 76%
16:00 -4°C° 0.7 mm 3 m/s 673 mmHg 77%
17:00 -5°C° 0.7 mm 3 m/s 673 mmHg 79%
18:00 -5°C° 0.7 mm 4 m/s 674 mmHg 81%
19:00 -6°C° 0.1 mm 3 m/s 675 mmHg 83%
20:00 -7°C° 0.1 mm 3 m/s 675 mmHg 85%
21:00 -7°C° 0.1 mm 2 m/s 676 mmHg 88%
22:00 -7°C° 0 mm 2 m/s 676 mmHg 89%
23:00 -7°C° 0 mm 2 m/s 676 mmHg 91%
Mostrar mais

Necessitamos do seu Consentimento

A Meteoprog e os seus Fornecedores de Serviços podem armazenar e aceder a dados pessoais como cookies, identificadores do dispositivo ou outras tecnologias semelhantes existentes no seu dispositivo e processar estes dados para personalizar conteúdos e anúncios, assim como funcionalidades nas redes sociais e análise de tráfego.

  • Armazenar e/ou aceder a informações no seu dispositivo

    Os cookies, identificadores do dispositivo ou outras informações podem ser armazenados ou acedidos no seu dispositivo, para os fins acima indicados.

  • Anúncios e conteúdos personalizados, medição de anúncios e conteúdos, dados sobre o público-alvo e desenvolvimento de produtos

    Os anúncios e os conteúdos podem ser personalizados com base num perfil. Podem ser adicionados dados adicionais para uma maior personalização dos anúncios e dos conteúdos. A eficácia dos anúncios e dos conteúdos pode ser medida. Podem ser obtidas informações sobre o público que visualizou os anúncios e os conteúdos. Estes dados podem ser usados para desenvolver ou melhorar sistemas, softwares ou a experiência do utilizador.

Ao clicar em "Eu concordo”, permitirá o uso de cookies, identificadores do dispositivo e web beacons mencionados ou outras tecnologias semelhantes. As configurações do navegador do seu dispositivo podem ser alteradas.

Para certos fins, podem ser invocados interesses legítimos ao invés de consentimento. Pode ler mais informação sobre este assunto na nossa Política de Privacidade e Cookies.